Home > Weather > Aspen > Past weeks

Flag for USA Past Weather in Aspen, Colorado, USA — Yesterday and Last 2 Weeks

Now
51 °F

Light rain. Cloudy.


Feels Like: 47 °F
Forecast: 41 / 69 °F
Wind: 13 mph from Southeast

Location: Aspen-Pitkin County Airport

Current Time: May 30, 2016 at 8:13:46 PM

Latest Report: May 30, 2016 at 6:53 PM


Visibility: 10 mi

Pressure: 30.03 "Hg (22.46 "Hg at 2411m altitude)

Humidity: 69%

Dew Point: 41 °F

Location of AspenLocation

Past Weather in Aspen — Graph

°F

Aspen Temperature Yesterday

Maximum temperature yesterday: 69 °F (at 2:53 PM)
Minimum temperature yesterday: 33 °F (at 5:53 AM)
Average temperature yesterday: 51 °F

High & Low Weather Summary for the Past Weeks

 TemperatureHumidityPressure
High75 °F (May 21, 3:53 PM)93% (May 19, 5:53 AM)30.09 "Hg (May 19, 5:53 AM)
Low31 °F (May 17, 4:53 AM)9% (May 21, 5:53 PM)29.54 "Hg (May 21, 3:53 PM)
Average50 °F50%29.80 "Hg
* Reported May 15 6:53 PM — May 30 6:53 PM, Aspen, Weather by CustomWeather, © 2016

Note: Actual official high and low records may vary slightly from our data, if they occured in-between our weather recording intervals... More about our weather records

Advertising

Aspen Weather History for the Previous 24 Hours

Scroll right to see more
 ConditionsComfort  
Time TempWeatherWind HumidityBarometerVisibility
6:53 PM
Mon, May 30
51 °FLight rain. Cloudy.13 mph69%30.03 "Hg10 mi
5:53 PM56 °FLight rain. Mostly cloudy.9 mph40%29.97 "Hg10 mi
4:53 PM64 °FScattered clouds.9 mph26%29.86 "Hg10 mi
3:53 PM64 °FPartly sunny.8 mph20%29.86 "Hg10 mi
2:53 PM60 °FPartly sunny.5 mph30%29.91 "Hg10 mi
1:53 PM63 °FScattered clouds.14 mph26%29.88 "Hg10 mi
12:53 PM67 °FPassing clouds.15 mph19%29.85 "Hg10 mi
11:53 AM68 °FScattered clouds.14 mph24%29.85 "Hg10 mi
10:53 AM65 °FPassing clouds.10 mph33%29.86 "Hg10 mi
9:53 AM58 °FSunny.9 mph41%29.90 "Hg10 mi
8:53 AM53 °FSunny.9 mph45%29.92 "Hg10 mi
7:53 AM49 °FSunny.3 mph48%29.90 "Hg10 mi
6:53 AM41 °FSunny.No wind67%29.93 "Hg10 mi
5:53 AM36 °FPassing clouds.3 mph75%29.96 "Hg10 mi
4:53 AM37 °FPassing clouds.3 mph73%29.97 "Hg10 mi
3:53 AM40 °FPassing clouds.3 mph65%29.94 "Hg10 mi
2:53 AM38 °FClear.No wind70%29.93 "Hg10 mi
1:53 AM41 °FClear.6 mph62%29.92 "Hg10 mi
12:53 AM42 °FClear.7 mph62%29.96 "Hg10 mi
11:53 PM
Sun, May 29
42 °FClear.7 mph65%29.96 "Hg10 mi
10:53 PM44 °FClear.10 mph60%29.96 "Hg10 mi
9:53 PM47 °FClear.8 mph56%29.96 "Hg10 mi
8:53 PM49 °FSunny.8 mph59%29.96 "Hg10 mi
Weather by CustomWeather, © 2016

See weather overviewHow to use our weather pages